| time (UTC) | temp F | wind direction | speed MPH | gust MPH | rain 1hr in | rain 24hr in | rain mn in | humidity % | barometer mb |
| 20260507044551 | 43 | 0 | 0.0 | 0.0 | 0.00 | 0.39 | 0.00 | 89 | 1014.5 |
| 20260507043044 | 43 | 0 | 0.0 | 0.0 | 0.00 | 0.39 | 0.00 | 89 | 1014.4 |
| 20260507041545 | 44 | 0 | 0.0 | 0.0 | 0.00 | 0.39 | 0.00 | 88 | 1014.5 |
| 20260507040048 | 44 | 0 | 0.0 | 0.0 | 0.00 | 0.39 | 0.00 | 88 | 1014.5 |
| 20260507034547 | 44 | 0 | 0.0 | 0.0 | 0.00 | 0.40 | 0.39 | 85 | 1014.6 |
| 20260507033048 | 44 | 0 | 0.0 | 0.0 | 0.00 | 0.40 | 0.39 | 83 | 1014.6 |
| 20260507031543 | 45 | 0 | 0.0 | 0.0 | 0.00 | 0.40 | 0.39 | 82 | 1014.6 |
| 20260507030045 | 46 | 0 | 0.0 | 0.0 | 0.00 | 0.40 | 0.39 | 79 | 1014.7 |
| 20260507024545 | 46 | 0 | 0.0 | 0.0 | 0.00 | 0.48 | 0.39 | 78 | 1014.8 |
| 20260507023040 | 47 | 0 | 0.0 | 0.0 | 0.00 | 0.48 | 0.39 | 76 | 1014.8 |
| 20260507021556 | 48 | 0 | 0.0 | 0.0 | 0.00 | 0.48 | 0.39 | 74 | 1014.6 |
| 20260507020045 | 49 | 0 | 0.0 | 0.0 | 0.00 | 0.48 | 0.39 | 72 | 1014.4 |
| 20260507014543 | 51 | 0 | 0.0 | 0.0 | 0.00 | 0.66 | 0.39 | 71 | 1014.0 |
| 20260507013044 | 52 | 0 | 0.0 | 0.0 | 0.00 | 0.66 | 0.39 | 67 | 1014.1 |
| 20260507011543 | 52 | 0 | 0.0 | 0.0 | 0.00 | 0.66 | 0.39 | 64 | 1014.0 |
| 20260507010043 | 53 | 0 | 0.0 | 1.0 | 0.00 | 0.66 | 0.39 | 63 | 1014.2 |
| 20260507004547 | 53 | 0 | 0.0 | 2.0 | 0.00 | 0.74 | 0.39 | 62 | 1014.0 |
| 20260507003042 | 53 | 0 | 0.0 | 2.0 | 0.00 | 0.74 | 0.39 | 60 | 1013.6 |
| 20260507001542 | 54 | 328 | 0.0 | 2.0 | 0.00 | 0.74 | 0.39 | 61 | 1013.4 |
| 20260507000043 | 54 | 355 | 0.0 | 3.0 | 0.00 | 0.74 | 0.39 | 60 | 1013.4 |
| 20260506234603 | 55 | 0 | 0.0 | 3.0 | 0.00 | 0.78 | 0.39 | 61 | 1013.4 |
| 20260506233046 | 55 | 0 | 1.0 | 3.0 | 0.00 | 0.78 | 0.39 | 59 | 1013.3 |
| 20260506231542 | 56 | 5 | 1.0 | 5.0 | 0.00 | 0.78 | 0.39 | 58 | 1013.4 |
| 20260506230045 | 56 | 23 | 2.0 | 5.0 | 0.00 | 0.78 | 0.39 | 58 | 1013.4 |
| 20260506224545 | 56 | 26 | 1.0 | 4.0 | 0.00 | 0.86 | 0.39 | 58 | 1013.7 |
| 20260506223037 | 56 | 360 | 0.0 | 4.0 | 0.00 | 0.86 | 0.39 | 60 | 1013.6 |
| 20260506221547 | 56 | 293 | 0.0 | 5.0 | 0.00 | 0.86 | 0.39 | 58 | 1013.8 |
| 20260506220047 | 56 | 0 | 2.0 | 8.0 | 0.00 | 0.86 | 0.39 | 57 | 1013.8 |
| 20260506214544 | 56 | 355 | 2.0 | 5.0 | 0.00 | 0.90 | 0.39 | 54 | 1013.7 |
| 20260506213042 | 56 | 306 | 2.0 | 6.0 | 0.00 | 0.90 | 0.39 | 53 | 1013.4 |
| 20260506211541 | 56 | 327 | 1.0 | 7.0 | 0.00 | 0.90 | 0.39 | 57 | 1013.3 |
| 20260506210041 | 56 | 294 | 1.0 | 5.0 | 0.00 | 0.90 | 0.39 | 56 | 1013.2 |
| 20260506204555 | 56 | 39 | 2.0 | 4.0 | 0.00 | 1.10 | 0.39 | 57 | 1013.3 |
| 20260506203045 | 56 | 0 | 1.0 | 6.0 | 0.00 | 1.10 | 0.39 | 57 | 1013.2 |
| 20260506201544 | 57 | 304 | 1.0 | 10.0 | 0.00 | 1.10 | 0.39 | 56 | 1013.2 |
| 20260506194547 | 57 | 244 | 2.0 | 11.0 | 0.00 | 1.17 | 0.39 | 55 | 1012.8 |
| 20260506193047 | 58 | 307 | 3.0 | 9.0 | 0.00 | 1.17 | 0.39 | 57 | 1012.8 |
| 20260506191545 | 57 | 19 | 3.0 | 9.0 | 0.00 | 1.17 | 0.39 | 54 | 1013.0 |
| 20260506190043 | 58 | 335 | 2.0 | 10.0 | 0.00 | 1.17 | 0.39 | 56 | 1012.9 |
| 20260506184540 | 60 | 13 | 2.0 | 13.0 | 0.00 | 1.17 | 0.39 | 53 | 1012.8 |
| 20260506183059 | 59 | 302 | 2.0 | 9.0 | 0.00 | 1.17 | 0.39 | 55 | 1012.5 |
| 20260506181549 | 58 | 355 | 3.0 | 9.0 | 0.00 | 1.17 | 0.39 | 54 | 1012.9 |
| 20260506180044 | 57 | 338 | 3.0 | 13.0 | 0.00 | 1.17 | 0.39 | 57 | 1013.2 |
| 20260506174542 | 58 | 13 | 3.0 | 6.0 | 0.00 | 1.17 | 0.39 | 59 | 1013.1 |
| 20260506173047 | 58 | 5 | 2.0 | 5.0 | 0.00 | 1.17 | 0.39 | 58 | 1013.2 |
| 20260506171549 | 58 | 316 | 3.0 | 10.0 | 0.00 | 1.17 | 0.39 | 56 | 1013.2 |
| 20260506170048 | 57 | 321 | 2.0 | 8.0 | 0.00 | 1.17 | 0.39 | 60 | 1013.3 |
| 20260506164550 | 57 | 296 | 2.0 | 8.0 | 0.00 | 1.17 | 0.39 | 62 | 1013.2 |
| 20260506163044 | 56 | 322 | 5.0 | 11.0 | 0.00 | 1.17 | 0.39 | 62 | 1013.1 |
| 20260506161551 | 55 | 63 | 3.0 | 9.0 | 0.00 | 1.17 | 0.39 | 64 | 1013.1 |
| 20260506160044 | 55 | 9 | 1.0 | 8.0 | 0.00 | 1.17 | 0.39 | 68 | 1013.1 |
| 20260506154548 | 54 | 360 | 1.0 | 8.0 | 0.00 | 1.17 | 0.39 | 68 | 1013.4 |
| 20260506153041 | 53 | 24 | 2.0 | 9.0 | 0.00 | 1.17 | 0.39 | 72 | 1013.1 |
| 20260506151558 | 52 | 284 | 2.0 | 9.0 | 0.00 | 1.17 | 0.39 | 73 | 1012.5 |
| 20260506150040 | 52 | 34 | 1.0 | 9.0 | 0.00 | 1.17 | 0.39 | 75 | 1012.2 |
| 20260506144544 | 51 | 317 | 3.0 | 8.0 | 0.00 | 1.17 | 0.39 | 74 | 1012.3 |
| 20260506143051 | 50 | 5 | 2.0 | 6.0 | 0.00 | 1.17 | 0.39 | 79 | 1012.0 |
| 20260506141544 | 49 | 20 | 1.0 | 8.0 | 0.00 | 1.17 | 0.39 | 83 | 1012.0 |
| 20260506140045 | 48 | 349 | 1.0 | 8.0 | 0.00 | 1.17 | 0.39 | 83 | 1012.2 |
| 20260506134539 | 47 | 11 | 0.0 | 6.0 | 0.00 | 1.17 | 0.39 | 86 | 1012.0 |
| 20260506133048 | 46 | 17 | 2.0 | 9.0 | 0.00 | 1.17 | 0.39 | 87 | 1011.6 |
| 20260506131545 | 46 | 355 | 1.0 | 8.0 | 0.00 | 1.17 | 0.39 | 88 | 1011.6 |
| 20260506130057 | 46 | 5 | 0.0 | 5.0 | 0.00 | 1.17 | 0.39 | 91 | 1011.4 |
| 20260506124541 | 45 | 10 | 1.0 | 5.0 | 0.00 | 1.17 | 0.39 | 92 | 1011.1 |
| 20260506123041 | 45 | 0 | 1.0 | 6.0 | 0.00 | 1.17 | 0.39 | 92 | 1011.2 |
| 20260506121536 | 44 | 351 | 1.0 | 4.0 | 0.00 | 1.17 | 0.39 | 93 | 1010.9 |
| 20260506120046 | 44 | 0 | 0.0 | 6.0 | 0.00 | 1.17 | 0.39 | 94 | 1010.8 |
| 20260506114546 | 44 | 0 | 0.0 | 3.0 | 0.00 | 1.17 | 0.39 | 94 | 1010.1 |
| 20260506113042 | 44 | 286 | 0.0 | 4.0 | 0.00 | 1.17 | 0.39 | 94 | 1009.9 |
| 20260506111541 | 43 | 0 | 1.0 | 4.0 | 0.00 | 1.17 | 0.39 | 94 | 1010.1 |
| 20260506110041 | 44 | 24 | 1.0 | 4.0 | 0.00 | 1.17 | 0.39 | 95 | 1009.9 |
| 20260506104544 | 44 | 329 | 0.0 | 5.0 | 0.00 | 1.20 | 0.39 | 95 | 1009.5 |
| 20260506103047 | 44 | 325 | 2.0 | 7.0 | 0.00 | 1.20 | 0.39 | 95 | 1008.7 |
| 20260506101553 | 44 | 336 | 0.0 | 8.0 | 0.00 | 1.20 | 0.39 | 95 | 1009.0 |
| 20260506100041 | 44 | 275 | 1.0 | 5.0 | 0.00 | 1.20 | 0.39 | 96 | 1008.9 |
| 20260506094547 | 44 | 303 | 0.0 | 3.0 | 0.00 | 1.25 | 0.39 | 96 | 1008.4 |
| 20260506093036 | 44 | 37 | 2.0 | 5.0 | 0.00 | 1.25 | 0.39 | 95 | 1007.7 |
| 20260506091544 | 44 | 329 | 1.0 | 4.0 | 0.01 | 1.25 | 0.39 | 96 | 1008.2 |
| 20260506090045 | 44 | 74 | 2.0 | 6.0 | 0.03 | 1.25 | 0.39 | 96 | 1008.1 |
| 20260506084549 | 44 | 42 | 1.0 | 5.0 | 0.05 | 1.25 | 0.39 | 96 | 1008.2 |
| 20260506083042 | 44 | 51 | 2.0 | 8.0 | 0.07 | 1.25 | 0.39 | 96 | 1008.2 |
| 20260506081538 | 44 | 0 | 2.0 | 10.0 | 0.08 | 1.24 | 0.38 | 96 | 1008.1 |
| 20260506073047 | 45 | 310 | 1.0 | 6.0 | 0.03 | 1.17 | 0.32 | 96 | 1008.0 |
| 20260506071557 | 45 | 360 | 2.0 | 6.0 | 0.03 | 1.16 | 0.30 | 95 | 1008.0 |
| 20260506061543 | 46 | 36 | 6.0 | 14.0 | 0.10 | 1.13 | 0.27 | 95 | 1007.3 |